Weather History for Victoria Int. Airport, B. C., British Columbia

Change the Weather History Date:

Friday, October 12, 2012

  Actual Average Record
Temperature  
Mean Temperature 50 °F -  
Max Temperature 54 °F 54 °F - ()
Min Temperature 47 °F 40 °F - ()
Degree Days  
Heating Degree Days 14    
Moisture  
Dew Point 48 °F    
Average Humidity 90    
Maximum Humidity 94    
Minimum Humidity 87    
Precipitation  
Precipitation 0.08 in 0.13 in - ()
Sea Level Pressure  
Sea Level Pressure 29.86 in    
Wind  
Wind Speed 5 mph ()    
Max Wind Speed 15 mph    
Max Gust Speed 21 mph    
Visibility 7.7 miles    
Events Rain    
T = Trace of Precipitation, MM = Missing Value Source: Averaged Metar Reports

Daily Weather History Graph

Daily Weather History Graph

Search for Another Location

Airport:

Trip Planner

Search our weather history database for the weather conditions in past years. The results will help you decide how hot, cold, wet, or windy it might be!

Date:

Astronomy

Oct. 12, 2012 Rise Set
Actual Time 7:30 AM PDT 6:28 PM PDT
Civil Twilight 6:58 AM PDT 7:00 PM PDT
Nautical Twilight 6:22 AM PDT 7:36 PM PDT
Astronomical Twilight 5:45 AM PDT 8:13 PM PDT
Moon 4:06 AM PDT (10/12) 4:51 PM PDT (10/12)
Length of Visible Light 12h 01m
Length of Day
10h 58m
Waning Crescent, 10% of the Moon is Illuminated
Oct 12
Waning Crescent
Oct 15
New
Oct 21
First Quarter
Oct 29
Full
Nov 6
Last Quarter

Hourly Weather History & Observations

Time (PDT) Temp. Dew Point Humidity Pressure Visibility Wind Dir Wind Speed Gust Speed Precip Events Conditions
12:00 AM 50.0 °F 46.4 °F 87% 29.80 in 8.0 mi Calm Calm - N/A   Overcast
1:00 AM 50.0 °F 46.4 °F 87% 29.80 in 7.0 mi Calm Calm - N/A   Overcast
2:00 AM 50.0 °F 46.4 °F 87% 29.80 in 7.0 mi Calm Calm - N/A   Overcast
2:22 AM 48.2 °F - N/A% - 6.0 mi Calm Calm - N/A   Overcast
3:00 AM 48.2 °F 46.4 °F 93% 29.80 in 6.0 mi Calm Calm - N/A   Overcast
4:00 AM 50.0 °F 46.4 °F 87% 29.81 in 8.0 mi Calm Calm - N/A Rain Light Rain
5:00 AM 49 °F 47 °F 90% 29.82 in 7 mi Calm Calm - - Rain Light Rain
5:00 AM 50.0 °F 46.4 °F 87% 29.82 in 8.0 mi Calm Calm - N/A Rain Light Rain
5:46 AM 50.0 °F - N/A% - 8.0 mi SSE 6.9 mph - N/A Rain Light Rain
6:00 AM 50.0 °F 46.4 °F 87% 29.84 in 7.0 mi SSE 4.6 mph - N/A Rain Light Rain
6:10 AM 50.0 °F - N/A% - 3.0 mi SE 6.9 mph - N/A Rain Light Rain
7:00 AM 50.0 °F 46.4 °F 87% 29.84 in 3.0 mi SE 11.5 mph - N/A Rain Light Rain
7:22 AM 50.0 °F - N/A% - 3.0 mi SSE 12.7 mph - N/A Rain Light Rain
7:34 AM 50.0 °F - N/A% - 2.5 mi SE 10.4 mph 17.3 mph N/A Rain Light Rain
7:47 AM 50.0 °F - N/A% - 4.0 mi SSE 11.5 mph 17.3 mph N/A   Light Drizzle
8:00 AM 50.0 °F 48.2 °F 94% 29.85 in 4.0 mi SSE 11.5 mph 17.3 mph N/A   Overcast
8:48 AM 50.0 °F - N/A% - 4.0 mi SE 11.5 mph - N/A   Light Drizzle
9:00 AM 50.0 °F 48.2 °F 94% 29.86 in 4.0 mi SSE 9.2 mph - N/A   Light Drizzle
9:25 AM 50.0 °F - N/A% - 4.0 mi SE 6.9 mph - N/A   Overcast
10:00 AM 50.0 °F 48.2 °F 94% 29.87 in 4.0 mi ESE 5.8 mph - N/A   Overcast
10:35 AM 51.8 °F - N/A% - 3.0 mi SE 5.8 mph - N/A   Overcast
11:00 AM 51 °F 49 °F 89% 29.88 in 2 mi SE 5.8 mph - -   Partly Cloudy
11:00 AM 51.8 °F 48.2 °F 88% 29.88 in 2.0 mi SE 5.8 mph - N/A   Overcast
11:24 AM 51.8 °F - N/A% - 2.0 mi SE 6.9 mph - N/A   Overcast
11:43 AM 51.8 °F - N/A% - 2.0 mi SE 4.6 mph - N/A   Light Drizzle
12:00 PM 51.8 °F 50.0 °F 94% 29.89 in 5.0 mi SE 5.8 mph - N/A   Light Drizzle
12:14 PM 53.6 °F - N/A% - 7.0 mi ESE 5.8 mph - N/A   Overcast
1:00 PM 53.6 °F 50.0 °F 88% 29.88 in 10.0 mi ENE 4.6 mph - N/A   Overcast
1:15 PM 53.6 °F - N/A% - 15.0 mi East 2.3 mph - N/A   Overcast
2:00 PM 53.6 °F 50.0 °F 88% 29.88 in 15.0 mi SSE 8.1 mph - N/A   Overcast
3:00 PM 53.6 °F 50.0 °F 88% 29.88 in 15.0 mi SE 6.9 mph - N/A   Overcast
5:00 PM 53.6 °F 50.0 °F 88% 29.87 in 12.0 mi SSE 8.1 mph - N/A Rain Light Rain
5:36 PM 53.6 °F - N/A% - 3.0 mi SE 8.1 mph - N/A Rain Light Rain
6:00 PM 53.6 °F 50.0 °F 88% 29.88 in 10.0 mi SE 6.9 mph - N/A Rain Light Rain
6:18 PM 51.8 °F - N/A% - 10.0 mi SE 10.4 mph - N/A   Overcast
7:00 PM 53.6 °F 50.0 °F 88% 29.88 in 15.0 mi SE 10.4 mph - N/A   Overcast
7:15 PM 53.6 °F - N/A% - 15.0 mi SE 15.0 mph - N/A Rain Light Rain
8:00 PM 53.6 °F 50.0 °F 88% 29.88 in 20.0 mi SE 13.8 mph 20.7 mph N/A   Overcast
8:28 PM 53.6 °F - N/A% - 10.0 mi SE 11.5 mph - N/A   Overcast
9:00 PM 51.8 °F 50.0 °F 94% 29.90 in 10.0 mi SE 10.4 mph - N/A   Overcast
9:27 PM 51.8 °F - N/A% - 10.0 mi SE 10.4 mph - N/A Rain Light Rain
10:00 PM 53.6 °F 50.0 °F 88% 29.92 in 10.0 mi SE 8.1 mph - N/A Rain Light Rain
10:37 PM 51.8 °F - N/A% - 10.0 mi SE 8.1 mph - N/A   Overcast
11:00 PM 52 °F 51 °F 93% 29.93 in 12 mi ESE 9.2 mph - - Rain Light Rain
11:00 PM 51.8 °F 50.0 °F 94% 29.93 in 12.0 mi ESE 10.4 mph - N/A   Overcast